Regional Weather Roundup
Issued by NWS

Home | Current Version | Previous Version | Graphics & Text | Print | Product List | Glossary On
Versions: 1 2 3 4 5 6 7 8 9 10 11 12 13 14 15 16 17 18 19 20 21 22 23 24 25 26 27 28 29 30 31 32 33 34 35 36 37 38 39 40 41 42 43 44 45 46 47 48 49 50
000
ASUS43 KLMK 221402
RWRKY
KENTUCKY REGIONAL WEATHER ROUNDUP
NATIONAL WEATHER SERVICE LOUISVILLE KY
1000 AM EDT FRI AUG 22 2014

NOTE "FAIR" INDICATES FEW OR NO CLOUDS BELOW 12,000 FEET
WITH NO SIGNIFICANT WEATHER AND/OR OBSTRUCTIONS TO VISIBILITY.

KYZ001>023-026-027-061>063-070>075-221500-
WESTERN AND SOUTH CENTRAL KENTUCKY

CITY           SKY/WX    TMP DP  RH WIND       PRES   REMARKS
PADUCAH        SUNNY     83  74  74 SW8       30.05R
HENDERSON      PTSUNNY   82  73  74 W9        30.03S
OWENSBORO      PTSUNNY   81  75  81 SW9       30.05R
HOPKINSVILLE   NOT AVBL
BOWLING GREEN  PTSUNNY   81  73  76 SW10      30.08S
GLASGOW        MOSUNNY   81  73  76 W10       30.08S
$$

KYZ024-025-028>034-038-045-046-053-221500-
NORTH CENTRAL KENTUCKY

CITY           SKY/WX    TMP DP  RH WIND       PRES   REMARKS
LOUISVILLE/SDF CLOUDY    81  73  76 W9        30.03R
LOUISVILLE/LOU CLOUDY    80  73  79 SW5       30.03R
FORT KNOX      PTSUNNY   80  80  99 SW8       30.04R
$$

KYZ035>037-039>044-047>052-055>060-089>105-221500-
NORTHEAST KENTUCKY

CITY           SKY/WX    TMP DP  RH WIND       PRES   REMARKS
LEXINGTON      PTSUNNY   81  73  76 SW9       30.06S
COVINGTON      CLOUDY    76  72  87 W3        30.04R
FRANKFORT      CLOUDY    79  73  82 W8        30.04R
$$

KYZ054-064>069-076>088-106>120-221500-
SOUTHEAST KENTUCKY

CITY           SKY/WX    TMP DP  RH WIND       PRES   REMARKS
JACKSON        MOSUNNY   77  71  82 CALM      30.10S
LONDON         MOSUNNY   80  71  74 SW7       30.12S
SOMERSET       PTSUNNY   79  73  83 SW7       30.11S
MIDDLESBORO    CLOUDY    73  71  94 CALM      30.14R
MONTICELLO     MOSUNNY   82  75  79 W6        30.12R
$$



USA.gov is the U.S. government's official web portal to all federal, state and local government web resources and services.